Wind_Speed
9 8 8 9 9 9 10 10 10 10 11 11 11 12 12 13 13 14 14 14 15 15 14 14 14 14 14 14 14 15 15 16 16 16 16 16 17 17 18 18 19 19 20 20 20 20 20 20 20 20 20 20 20 20 21 21 21 21 21 22 22 22 22 22 23 23 24 24 24 25 25 25 26 26 26 26 27 27 27 27 28 28 28 28 28 28
7 6 7 7 8 8 9 9 9 10 10 11 12 12 12 13 14 14 14 14 14 14 14 14 14 14 14 14 15 15 16 16 16 16 16 17 17 18 19 19 19 20 20 20 20 20 20 20 20 20 20 20 20 20 20 20 21 21 21 21 22 22 22 23 23 24 24 24 25 25 26 26 26 27 27 27 27 28 28 28 28 28 28 29 29 29
5 6 6 6 6 7 8 9 9 9 10 11 12 13 13 14 14 14 14 14 14 14 14 14 14 14 14 15 15 15 15 16 16 16 17 17 18 19 19 20 20 20 20 19 19 19 19 19 19 19 19 19 20 20 20 20 21 21 21 22 22 22 23 23 24 24 25 25 25 26 26 27 27 27 27 27 27 28 28 28 28 29 29 29 29 29
6 6 7 6 7 7 8 9 9 10 10 12 12 13 13 14 14 13 13 13 13 14 14 14 14 14 15 15 15 15 15 16 16 17 17 18 18 19 19 19 19 19 18 18 18 18 18 18 18 19 19 19 20 20 20 21 21 21 22 22 23 23 23 24 24 24 25 25 26 26 27 27 27 27 27 27 27 28 28 28 28 28 28 29 29 29
7 7 7 6 6 7 8 8 9 10 11 11 12 12 12 12 13 13 13 13 13 13 13 13 14 14 14 15 15 15 15 16 17 17 18 18 19 19 18 18 18 17 17 17 18 18 18 19 19 19 19 20 20 21 21 21 22 22 22 23 23 24 24 24 25 25 25 26 26 26 26 26 26 26 27 27 27 27 28 28 28 28 28 28 29 29
7 7 6 6 7 8 8 9 9 10 10 11 11 11 12 12 12 12 13 13 13 13 13 13 14 14 14 15 15 15 16 16 17 17 18 18 18 18 18 17 17 17 17 18 18 19 19 19 20 20 20 21 21 21 22 22 22 23 23 24 24 24 25 25 25 25 25 25 25 25 26 26 26 26 26 27 27 27 27 28 28 28 28 28 28 29
7 7 6 6 7 8 9 9 9 10 10 10 11 11 11 11 12 12 12 12 12 13 13 14 14 14 14 14 14 15 15 16 16 16 17 17 17 17 17 17 17 17 18 18 19 19 20 20 21 21 21 21 22 22 23 23 23 23 24 24 24 25 25 25 25 25 25 25 25 25 25 25 25 26 26 26 26 27 27 27 27 27 28 28 28 28
7 6 5 5 7 8 9 9 9 8 8 9 10 11 11 11 11 11 11 12 12 12 13 13 13 13 13 13 14 14 14 14 15 15 15 15 15 16 16 16 17 18 18 19 20 20 20 21 21 21 22 22 22 23 23 23 24 24 24 24 25 25 25 25 25 25 24 24 24 24 25 25 25 25 25 26 26 26 26 26 26 27 27 27 27 28
7 7 7 7 8 8 9 9 8 8 8 8 9 11 12 12 12 11 11 11 11 11 11 12 13 13 13 13 14 14 14 14 14 15 15 15 15 15 16 17 18 18 19 19 20 20 21 21 22 22 22 22 23 23 23 23 24 24 24 24 24 24 24 24 24 24 24 24 24 24 24 24 25 25 25 25 25 25 26 26 26 26 27 27 27 27
6 7 8 9 9 8 8 9 8 8 8 9 10 11 11 11 11 11 11 11 10 10 10 11 12 13 14 14 14 14 15 15 15 15 15 15 16 16 17 17 18 18 19 19 20 21 21 21 21 22 22 22 22 23 23 23 23 23 23 23 23 23 23 23 23 23 23 24 24 24 24 24 24 25 25 25 25 25 25 26 26 26 27 27 27 27
7 7 8 8 8 8 8 8 8 8 8 9 10 10 10 10 10 10 11 11 11 11 11 11 12 13 14 15 15 15 15 15 15 14 14 15 15 16 16 17 17 18 18 19 20 20 20 20 20 21 21 22 22 22 22 22 23 22 22 22 22 22 22 22 23 23 23 23 23 24 24 24 24 25 25 25 25 25 26 26 27 27 27 27 27 28
7 8 8 8 8 8 8 8 9 9 8 9 9 9 9 8 9 9 11 11 12 12 12 12 13 13 14 15 15 15 15 15 14 14 13 13 13 14 15 15 16 16 17 18 18 19 19 19 19 20 21 21 21 22 22 22 21 21 21 21 21 22 22 22 22 22 23 23 23 24 24 24 25 25 25 26 26 26 27 27 27 27 28 28 28 28
7 7 7 7 8 8 8 8 8 8 8 8 8 8 9 9 9 10 11 12 12 13 13 13 14 14 15 15 15 15 15 14 14 14 13 13 13 14 14 15 16 16 17 18 18 18 18 19 19 20 20 21 21 21 21 20 20 20 20 21 21 21 22 22 22 23 23 24 24 24 25 25 25 26 26 26 27 27 27 27 28 28 28 28 28 29
7 7 7 8 8 8 8 8 8 8 8 8 9 9 10 10 10 10 11 12 12 13 13 14 15 15 15 15 14 14 14 14 14 13 13 13 13 14 15 16 17 17 18 18 18 18 18 19 19 19 19 20 20 19 19 19 19 20 20 21 22 22 23 23 23 24 24 24 25 25 25 26 26 26 26 27 27 27 28 28 28 28 28 28 28 29
7 7 8 8 8 8 8 8 8 8 9 9 10 10 11 11 10 10 11 12 12 13 13 14 15 15 14 14 13 12 13 13 13 13 14 14 14 15 16 17 18 18 19 19 19 19 18 18 18 18 19 19 19 19 19 20 20 21 22 22 23 23 24 24 24 25 25 25 25 26 26 26 26 26 27 27 27 28 28 28 28 28 28 28 29 29
7 8 8 8 8 8 8 8 9 9 10 10 10 10 10 10 10 10 11 12 12 12 12 13 14 14 13 12 11 11 12 12 13 13 15 16 16 16 17 18 19 19 19 19 19 19 19 18 18 19 19 19 20 20 21 21 22 23 23 24 24 25 25 25 25 25 25 26 26 26 26 26 27 27 27 27 28 28 28 28 28 28 29 29 29 29
8 8 9 9 9 9 9 9 9 10 10 10 10 10 10 10 10 11 11 12 12 12 11 11 11 11 11 12 11 11 11 12 13 14 16 18 18 18 18 18 19 19 19 19 19 19 18 18 18 19 19 19 20 21 22 23 24 25 25 25 25 26 26 26 26 26 26 26 26 27 27 27 27 27 28 28 28 28 28 29 29 29 29 29 29 29
8 8 9 9 9 10 10 10 10 10 10 10 9 9 10 10 11 11 12 12 12 12 12 12 11 10 10 11 12 12 12 14 15 16 17 19 20 19 19 18 18 19 19 19 19 18 18 18 19 19 20 21 23 24 25 25 25 26 26 26 26 26 26 26 26 26 27 27 27 27 27 27 27 28 28 28 29 29 29 29 29 29 29 29 29 29
8 8 8 9 9 9 10 9 9 9 9 9 9 10 11 11 11 12 12 13 13 13 13 13 12 13 13 14 15 15 14 15 16 17 17 19 20 20 18 17 18 18 19 19 19 18 18 19 20 21 22 23 24 25 25 25 25 26 26 26 26 27 27 27 27 27 27 27 28 28 28 28 28 28 28 28 29 29 29 29 29 29 29 29 29 29
9 9 9 9 9 9 9 9 9 9 9 9 10 11 12 12 13 13 13 13 13 13 13 13 14 14 15 16 17 17 16 16 16 17 17 18 20 19 18 16 16 17 18 18 18 18 18 19 20 21 22 23 23 24 24 25 26 26 27 27 28 28 28 28 28 28 28 28 28 28 28 28 28 28 28 28 28 28 28 28 29 29 29 29 29 30
11 10 10 9 9 9 9 9 9 9 10 10 11 12 14 14 14 13 13 13 12 12 12 13 14 14 15 16 17 18 18 17 17 16 16 17 18 18 17 16 15 16 17 18 18 18 18 19 20 21 22 23 23 24 25 26 27 28 28 28 28 28 28 28 28 28 28 28 28 28 28 28 28 28 28 28 28 28 28 28 29 29 30 30 29 30
11 10 10 9 10 10 10 10 10 10 11 12 13 13 14 14 14 13 13 12 12 12 13 13 14 15 17 18 20 20 19 17 16 15 14 15 17 18 16 15 14 16 17 18 18 18 18 19 20 21 22 23 24 26 26 27 27 28 28 28 28 28 28 28 28 28 28 28 28 28 28 28 28 28 28 28 28 28 28 28 29 29 29 30 30 30
11 11 11 11 11 11 11 12 12 12 12 13 14 15 15 15 14 13 12 12 13 13 14 16 17 18 19 20 20 19 18 16 14 13 12 13 15 17 15 14 14 15 17 17 18 18 19 20 21 21 23 24 25 26 26 27 28 28 28 28 28 28 28 28 28 28 28 28 28 28 28 28 28 28 28 28 28 29 29 29 29 29 29 30 30 30
11 11 11 11 11 11 11 11 12 12 12 13 13 14 14 13 12 12 12 13 14 15 16 18 18 19 19 18 18 17 16 14 12 11 11 12 14 16 15 14 14 16 17 18 18 18 19 20 21 22 23 24 25 26 26 27 27 28 28 28 28 28 28 28 28 28 28 28 28 28 28 28 28 28 29 29 29 29 29 29 29 29 29 29 30 30
11 12 12 11 11 12 12 12 12 13 13 14 14 13 12 12 12 13 14 15 16 16 16 17 17 17 17 17 16 15 14 12 10 10 10 11 14 16 15 14 14 16 17 18 18 18 19 21 22 22 23 24 25 26 26 27 27 27 27 27 27 27 27 27 28 28 28 28 28 28 28 28 28 28 28 28 29 29 29 29 29 29 29 29 30 30
13 13 14 14 13 14 14 15 15 15 15 16 15 14 14 14 15 16 16 16 16 15 15 15 15 15 15 15 14 13 12 10 9 9 10 11 13 15 15 14 14 16 18 19 19 19 20 21 23 23 23 24 25 25 25 25 26 25 26 26 26 27 27 27 28 28 28 28 28 28 28 28 28 28 28 28 28 28 28 28 28 28 29 29 30 31
13 14 14 14 14 14 14 15 15 16 16 15 15 15 15 15 16 16 16 16 15 13 13 13 13 13 14 14 13 13 12 10 10 10 11 12 14 15 15 15 15 16 17 19 19 20 21 22 23 24 24 24 23 23 23 23 23 24 24 25 26 26 27 27 28 28 28 28 28 28 28 28 28 27 28 28 28 28 28 28 28 28 29 29 30 30
11 11 11 12 12 13 13 14 15 15 15 15 16 16 15 15 15 15 16 15 14 13 13 12 11 11 12 12 13 13 13 12 12 11 11 12 12 13 15 15 15 15 17 19 20 21 21 22 23 23 23 22 21 21 21 21 22 23 24 25 26 27 27 27 27 27 27 27 27 27 27 27 27 27 27 28 28 28 28 28 28 28 28 28 28 27
8 9 10 12 13 14 14 15 15 16 16 17 17 17 16 15 15 15 16 14 13 12 13 13 12 12 12 13 14 15 14 13 12 11 10 10 11 13 14 14 15 15 16 18 20 21 21 20 20 20 20 20 19 19 20 20 21 22 24 25 25 26 26 26 26 26 26 26 26 27 27 27 27 27 28 28 28 28 28 27 27 27 26 25 24 24
8 10 11 13 14 14 14 14 15 16 17 17 17 16 15 14 14 15 14 13 12 12 12 13 13 12 12 12 12 12 11 11 9 7 7 8 10 12 14 15 15 16 15 15 14 15 17 19 18 17 17 17 18 19 20 20 21 22 23 23 24 24 24 24 24 25 25 26 26 27 27 27 27 27 27 27 27 27 27 27 26 26 25 23 23 23
11 11 12 12 12 12 11 12 13 14 15 15 14 13 13 12 12 12 12 12 11 12 12 12 12 12 11 10 7 5 6 8 6 5 5 7 10 13 14 15 16 16 14 12 8 6 10 15 17 17 16 17 19 20 21 21 21 22 22 22 23 23 23 23 24 24 25 25 25 26 26 26 26 26 26 26 26 26 26 26 25 24 23 22 22 22
12 12 11 11 11 11 11 11 12 12 12 11 11 10 10 10 10 10 10 11 11 11 12 12 12 12 12 11 9 8 9 10 10 8 8 10 12 14 15 15 16 16 15 14 12 9 7 10 16 20 20 20 21 21 22 21 21 21 22 22 22 23 23 23 23 23 24 24 24 25 25 25 25 25 26 26 26 26 25 25 24 23 22 22 21 21
12 12 12 12 11 11 11 11 10 10 10 9 9 8 8 8 9 9 10 10 11 11 11 12 12 13 13 14 14 14 15 15 14 12 12 12 13 14 15 15 16 16 17 16 16 15 13 14 18 22 22 22 21 21 21 21 21 21 21 22 22 22 23 22 22 22 22 23 23 24 24 24 24 24 24 24 24 24 24 24 23 22 22 21 21 21
12 12 12 11 11 10 10 9 9 9 9 8 8 8 8 8 8 9 9 10 11 11 12 12 13 13 13 13 15 16 17 17 15 13 12 12 12 13 15 16 16 17 17 17 17 17 17 19 20 20 21 22 22 22 21 21 21 21 21 21 21 22 22 22 21 22 22 22 22 22 22 22 22 22 22 22 22 22 22 22 22 22 22 21 21 22
11 11 10 10 9 9 8 8 8 8 8 8 8 8 8 8 8 9 9 10 11 11 12 13 14 14 14 14 15 16 17 16 14 12 12 12 13 15 16 17 17 16 16 16 16 16 16 19 20 20 19 21 23 22 21 20 20 20 20 21 21 22 22 22 22 22 22 22 22 22 22 22 21 21 21 21 21 21 22 23 23 23 23 23 24 24
10 10 9 8 8 8 7 7 7 7 7 7 8 8 8 8 9 9 10 10 11 12 14 15 15 16 16 17 17 18 18 18 16 15 14 14 15 16 16 17 17 16 16 16 16 16 16 17 19 20 20 19 20 21 22 21 20 20 21 21 22 22 22 22 22 22 22 22 22 22 22 22 21 21 21 22 22 23 24 24 24 24 25 25 25 25
9 9 8 7 7 7 7 7 7 7 8 8 8 8 8 9 9 10 11 11 12 13 15 16 16 17 18 19 20 21 21 21 20 18 18 18 18 18 18 19 19 18 17 17 17 17 17 17 18 19 19 18 18 19 21 22 22 22 23 22 22 22 23 22 22 22 22 22 22 22 22 22 22 22 22 23 23 23 23 23 23 23 24 24 24 24
8 8 8 7 7 7 7 8 8 8 8 8 8 9 9 10 10 11 12 12 13 14 15 16 16 17 19 20 22 23 24 24 24 24 23 22 22 21 21 21 20 20 19 18 18 18 18 17 15 14 15 18 19 21 22 23 23 23 24 24 24 23 23 23 22 21 21 22 22 22 23 23 23 23 23 22 22 21 21 21 21 22 22 22 23 23
7 7 7 7 7 7 8 8 8 8 8 9 9 10 10 11 12 12 12 13 13 14 14 15 16 17 18 20 22 23 24 26 27 27 27 26 25 24 23 22 21 21 21 20 20 19 18 17 16 15 15 17 20 22 23 22 23 23 24 25 25 25 24 22 21 21 21 22 22 23 23 23 23 22 22 21 21 20 20 21 21 21 21 21 21 22
7 8 8 8 8 8 8 8 9 9 9 10 10 11 11 12 12 12 12 12 13 13 14 15 15 16 18 19 20 21 23 25 26 26 26 26 26 25 24 23 22 22 21 21 20 20 19 19 19 19 19 18 19 21 22 23 23 24 24 23 24 24 24 23 22 22 22 22 23 23 23 22 22 22 21 21 21 20 20 21 21 21 21 20 20 21
8 8 8 8 8 8 9 9 9 10 10 11 11 11 11 11 11 12 12 12 12 13 13 14 15 16 17 18 18 19 21 22 23 24 25 25 26 25 24 23 23 22 21 21 20 20 20 20 20 20 20 20 21 22 23 24 24 24 24 23 23 25 26 26 25 24 23 22 22 21 22 22 22 22 22 22 22 22 21 21 21 22 22 21 21 21
8 9 9 9 9 9 9 10 10 11 11 11 11 11 11 11 11 11 12 12 12 12 12 13 14 15 16 17 17 18 18 20 21 22 23 23 24 25 25 24 23 23 22 21 21 20 20 20 20 21 21 21 21 21 22 24 25 24 24 24 25 26 27 26 24 22 21 21 21 21 22 22 23 23 23 23 23 23 22 22 22 23 23 23 23 23
8 9 9 9 9 10 10 11 11 11 10 10 11 11 11 11 11 12 12 13 13 13 13 13 14 15 16 17 17 17 17 17 18 18 19 20 21 22 23 24 23 23 22 21 21 21 21 21 20 20 21 21 21 21 23 24 25 24 24 24 24 23 21 23 23 22 21 22 22 23 23 23 23 23 24 23 23 23 22 23 24 24 24 23 23 23
9 9 9 10 10 10 11 10 10 10 10 11 11 11 11 11 12 12 13 13 14 14 14 14 14 15 16 16 17 17 16 15 15 15 16 17 18 20 21 22 23 23 23 22 21 20 21 21 21 21 21 20 21 22 23 24 24 24 25 24 24 23 22 23 24 25 24 24 23 23 23 23 23 23 23 23 23 23 23 23 23 23 23 23 23 24
9 10 10 10 10 10 10 10 10 11 11 11 12 12 12 12 12 12 13 13 14 14 14 14 14 14 15 16 16 16 16 15 15 14 15 15 16 17 18 20 20 21 22 22 22 21 20 20 21 22 21 21 21 22 24 24 25 25 26 25 24 24 25 26 26 25 25 25 24 24 24 23 24 24 24 23 24 24 23 23 23 24 24 24 23 24
9 9 10 10 10 10 10 11 11 11 11 12 12 12 12 12 12 12 13 13 14 14 14 14 13 14 15 16 16 16 16 16 16 15 14 14 14 15 16 17 18 19 20 21 22 22 22 22 22 23 23 22 22 23 24 24 24 24 25 25 24 24 25 25 25 24 24 24 24 25 24 23 23 23 23 24 24 25 24 24 23 23 24 24 24 24
9 9 10 10 10 11 11 11 11 11 11 12 12 12 12 12 12 13 13 13 14 14 14 14 14 14 15 16 16 16 16 16 17 16 16 15 15 15 15 16 17 18 19 20 21 22 23 24 25 24 22 22 23 24 24 24 23 23 24 24 24 23 23 24 24 24 24 24 24 25 24 23 23 23 23 24 25 25 25 24 24 23 23 23 23 23
9 10 10 10 10 11 11 11 11 11 12 12 12 12 12 12 12 13 13 14 13 13 14 14 14 15 15 16 16 16 16 17 17 18 17 17 16 16 16 16 16 17 18 19 21 22 23 25 26 26 25 23 22 23 24 24 24 23 23 23 23 23 23 24 25 24 23 24 25 25 24 23 22 22 23 24 25 26 26 25 24 23 23 23 23 23
9 9 10 10 10 11 11 11 11 12 12 12 13 13 13 13 13 13 13 14 13 13 13 14 14 15 15 16 16 16 17 17 18 18 18 17 17 17 16 16 17 17 18 19 20 21 22 23 24 24 24 24 24 24 25 25 24 24 23 23 22 22 23 24 24 24 23 23 24 25 24 23 22 22 22 23 24 26 27 26 25 24 23 22 23 23
9 10 10 10 11 11 11 12 12 12 12 13 13 13 13 13 13 13 13 13 13 13 13 14 14 15 16 16 16 17 17 17 18 18 18 17 17 17 17 17 18 18 19 19 19 19 19 20 20 20 21 22 23 24 24 24 24 24 24 23 22 22 22 23 24 24 23 23 24 24 24 23 23 22 22 22 23 25 26 26 25 24 23 22 22 22
9 10 10 10 11 11 11 12 12 12 13 13 13 14 14 14 14 13 13 13 13 13 14 14 15 15 16 17 17 17 17 17 18 18 19 18 17 17 17 17 18 18 18 18 18 18 17 16 16 17 18 18 19 21 22 23 23 23 23 23 23 22 22 23 24 25 25 24 24 24 24 24 23 22 21 21 22 23 24 25 25 25 23 22 21 21
Wind_Direction
250 247 244 247 253 261 269 272 273 275 278 282 286 288 289 290 290 291 292 294 295 296 296 295 295 295 295 294 293 293 292 293 293 294 293 292 291 290 290 289 288 288 288 288 288 287 287 286 286 285 284 284 283 283 282 282 281 281 281 281 280 280 280 280 280 280 280 280 281 281 281 281 281 281 280 280 279 279 279 278 278 278 277 277 277 277
246 244 246 252 258 265 272 274 273 273 277 282 285 288 290 291 292 293 294 294 296 297 297 297 296 295 294 293 292 291 290 291 292 292 293 292 291 290 290 290 289 289 288 288 287 287 287 286 286 285 285 285 284 283 282 282 282 281 281 281 281 280 280 279 279 280 280 280 280 280 280 280 280 280 280 280 280 279 278 278 277 277 278 277 277 277
247 248 252 256 258 263 271 275 275 275 278 282 285 287 290 291 292 292 294 296 297 298 298 297 297 295 294 292 291 290 289 290 291 292 292 292 292 291 290 290 290 289 288 288 287 287 286 286 286 286 286 285 285 284 283 283 283 282 282 282 282 281 279 279 279 279 280 280 280 280 280 280 280 280 280 280 280 279 279 278 278 278 277 277 277 277
258 259 261 262 262 264 269 274 277 278 280 282 284 287 288 290 290 291 293 295 297 298 298 297 296 294 293 291 290 289 289 290 291 292 293 293 293 292 291 291 291 290 290 289 289 288 288 287 287 287 287 286 286 285 285 284 284 283 283 283 283 282 281 280 280 280 280 280 280 280 280 280 281 281 281 281 280 280 280 280 279 279 279 278 277 277
261 261 263 266 269 272 275 278 280 282 283 283 285 286 287 288 289 292 294 296 297 297 297 296 294 293 292 291 290 290 290 291 292 293 293 294 294 293 293 293 292 292 291 291 291 290 290 289 289 288 288 287 287 286 286 285 284 284 284 283 283 283 282 282 281 281 281 281 281 281 282 282 282 283 282 281 281 281 280 280 280 280 280 279 278 277
264 263 265 269 274 279 282 283 283 285 286 285 285 286 287 288 290 292 294 296 296 296 295 294 293 292 291 290 290 290 291 291 292 292 293 293 293 293 293 293 293 292 292 292 292 291 291 291 290 290 289 288 287 287 286 285 285 284 284 284 284 283 283 283 283 282 283 283 283 283 283 282 282 282 281 281 281 280 280 280 279 279 279 279 278 277
268 268 268 271 276 280 283 284 283 283 284 286 287 288 289 291 292 293 293 294 294 294 294 292 292 291 291 290 291 291 292 292 292 291 291 292 291 292 291 291 291 291 291 291 291 291 291 290 290 290 289 288 287 287 286 286 285 284 284 283 284 284 284 284 284 284 283 283 283 282 282 282 281 281 281 281 280 280 280 280 279 279 279 278 278 277
270 272 271 273 279 283 285 284 281 281 281 285 289 293 295 296 296 295 293 292 291 292 293 293 293 293 292 293 293 293 294 294 293 292 292 292 291 291 291 290 290 290 290 291 291 291 291 290 290 290 289 288 287 287 286 285 285 285 284 284 284 284 284 284 284 284 283 283 282 282 282 282 281 281 281 281 280 280 280 279 279 279 278 278 278 277
269 275 276 277 281 285 286 284 281 280 281 285 289 294 297 299 298 297 295 292 290 291 293 295 296 296 295 295 295 295 293 292 292 291 291 291 292 292 292 292 292 291 291 292 292 292 291 291 290 290 289 288 287 287 286 285 285 285 285 285 284 284 284 284 284 284 283 283 283 282 282 282 282 282 281 281 281 280 279 279 279 278 278 278 277 277
264 270 276 279 279 280 281 283 283 283 283 285 286 288 291 293 295 296 296 294 294 294 295 296 297 297 297 297 296 295 294 292 290 289 289 289 290 292 293 293 294 294 294 293 293 293 292 292 291 290 289 288 287 287 286 286 285 285 285 285 285 284 284 284 284 284 284 283 283 283 283 283 282 282 281 281 280 280 279 278 278 278 277 277 277 276
266 270 276 280 281 279 278 281 284 286 286 285 284 284 283 285 289 294 297 298 299 300 299 297 296 296 298 298 297 296 295 294 292 291 290 291 292 293 295 296 296 296 296 296 295 295 294 293 292 291 290 289 287 287 286 286 285 285 285 285 285 285 285 285 285 285 285 285 284 284 284 283 282 282 281 281 280 279 278 278 278 277 277 276 276 275
272 277 280 282 284 283 282 282 284 286 286 286 287 287 286 286 289 293 296 298 300 302 301 298 295 294 295 296 296 296 295 294 294 294 294 295 297 298 300 300 300 300 300 299 298 296 295 294 293 291 290 289 288 287 286 286 286 286 286 286 286 286 286 286 286 286 286 286 285 285 284 283 283 282 282 281 280 279 278 278 277 277 276 276 275 274
272 277 280 280 281 282 283 284 285 286 287 289 291 293 294 293 294 294 293 294 297 299 299 298 296 294 293 293 293 294 294 293 294 295 296 298 301 303 304 304 304 303 302 301 299 297 296 295 294 292 290 289 288 287 287 286 286 286 287 287 288 288 288 288 288 288 288 287 286 285 285 284 283 283 282 281 280 279 278 278 277 277 276 275 274 274
275 278 279 278 278 279 281 283 285 288 290 291 291 290 291 292 293 293 292 292 294 296 296 295 295 294 294 292 292 292 293 294 295 296 297 299 302 305 305 305 304 303 302 300 298 296 295 295 294 292 290 289 288 288 287 287 287 288 288 289 289 290 290 290 290 289 289 288 287 286 285 285 284 283 283 282 281 280 279 278 277 277 276 275 274 273
277 279 278 277 278 280 283 286 289 290 291 290 289 288 289 289 290 292 293 293 294 295 294 293 294 294 294 292 292 293 294 295 297 298 299 300 301 304 305 304 303 301 300 298 296 294 294 294 292 291 290 288 288 288 288 288 288 289 290 290 290 290 291 291 291 290 289 288 288 287 286 285 285 284 283 282 281 280 279 279 278 277 276 275 274 273
279 279 279 280 280 282 285 289 290 289 288 287 287 287 288 289 291 292 293 292 292 293 293 294 296 296 294 293 294 296 298 298 299 300 301 300 301 303 304 303 301 299 298 295 294 293 293 292 291 289 288 288 288 288 289 289 290 290 290 291 291 291 291 290 290 290 289 289 288 287 286 286 285 284 284 283 282 281 280 279 278 277 276 275 275 274
277 278 278 280 281 283 284 285 283 283 283 284 285 285 286 289 292 292 289 288 288 289 289 291 295 297 298 298 299 300 303 303 303 302 301 300 300 301 302 301 299 296 295 292 291 292 291 290 289 288 288 288 289 290 290 290 291 291 291 291 291 291 291 290 290 290 289 289 288 288 287 286 285 285 284 283 282 281 280 280 279 278 277 276 275 274
273 274 276 278 280 281 281 280 280 280 282 284 286 288 288 288 287 285 283 282 283 285 286 288 289 291 295 297 298 301 306 306 305 303 301 298 298 298 299 297 295 293 292 290 289 289 289 288 288 287 287 288 290 290 291 291 291 291 292 291 291 291 291 291 290 290 289 289 288 288 287 286 285 285 284 283 282 281 280 280 279 279 278 277 276 275
275 275 276 276 277 277 277 277 278 279 282 285 289 291 289 285 282 279 278 277 277 279 281 284 285 286 288 290 293 298 303 304 304 302 299 296 295 296 297 295 293 291 289 288 288 289 289 288 288 288 289 290 290 291 291 291 292 292 292 292 292 292 291 291 291 290 290 289 288 287 287 286 285 285 284 284 283 282 281 281 280 279 278 277 276 276
277 274 272 274 277 277 276 275 276 278 280 284 286 287 286 284 280 278 276 275 274 274 276 279 282 283 285 287 290 295 300 302 301 298 295 293 293 294 294 293 291 289 288 287 288 289 290 290 290 290 290 291 291 291 291 292 292 292 292 292 292 292 292 291 291 290 290 289 288 288 287 286 285 285 284 284 283 283 282 281 280 279 278 277 276 275
275 273 272 274 277 279 279 278 277 277 279 283 285 285 284 284 281 278 276 276 276 276 276 278 280 283 286 288 290 293 296 297 296 293 292 291 290 291 292 291 290 288 287 288 289 290 291 291 291 291 291 291 291 291 292 292 292 292 292 292 292 292 292 291 291 290 290 289 288 288 287 286 285 285 284 283 283 282 282 281 280 280 279 278 276 275
274 275 276 277 278 278 279 279 279 279 280 282 283 281 280 279 279 278 279 279 280 280 280 281 283 286 288 288 288 289 291 290 287 286 287 287 287 288 290 291 289 287 287 288 290 291 291 291 290 290 290 290 291 291 291 291 291 291 291 291 291 291 291 291 290 290 289 289 288 288 287 286 285 285 284 284 283 283 282 282 281 281 279 278 277 276
273 275 278 279 277 275 276 277 279 280 281 279 277 274 271 271 272 275 279 282 285 287 288 288 288 287 286 285 285 286 286 283 279 277 280 281 283 286 291 292 290 288 286 288 291 292 292 291 290 290 291 291 290 291 291 291 290 290 290 290 290 290 290 290 289 289 289 289 288 287 287 286 286 285 285 284 284 284 283 283 282 281 280 279 278 276
274 274 275 275 274 273 274 276 278 279 278 276 274 272 272 274 278 284 289 291 291 291 290 290 289 287 284 284 284 284 284 280 275 271 272 276 281 286 290 291 290 288 288 289 291 293 293 292 291 291 291 291 291 290 290 290 289 289 289 290 289 289 289 289 289 289 289 288 288 288 287 287 287 286 286 285 285 284 283 282 282 281 281 280 278 277
271 271 272 272 272 273 274 274 275 276 277 278 282 288 293 297 298 298 295 293 291 289 289 289 287 285 284 286 286 285 283 280 272 267 267 273 280 285 288 290 290 288 289 291 292 293 293 292 292 292 292 291 291 290 290 289 289 288 288 288 288 288 288 289 289 289 289 289 289 288 288 288 287 287 286 286 285 284 284 283 282 281 281 280 279 277
268 268 269 271 273 274 273 272 272 273 274 276 282 291 297 299 299 297 293 290 288 287 287 286 284 283 284 286 285 284 284 282 275 267 266 273 281 285 288 289 289 288 289 292 294 294 294 294 293 293 293 291 290 289 288 288 288 288 288 288 288 288 288 288 289 289 289 289 289 288 288 288 288 288 287 286 286 285 284 284 283 282 281 281 280 279
268 267 268 270 271 272 271 271 271 271 272 274 278 283 288 293 294 291 287 284 284 284 282 280 280 282 284 284 283 283 286 285 280 273 269 273 278 282 286 288 289 289 290 293 294 295 294 293 292 292 291 289 288 288 287 287 288 288 288 288 288 288 288 288 288 288 288 288 288 288 288 288 288 288 288 287 286 286 285 284 283 283 282 282 281 280
271 268 268 269 270 271 272 272 272 273 274 275 277 280 284 285 284 280 277 278 278 278 275 273 275 279 283 283 284 285 287 285 280 275 272 271 272 276 283 288 290 291 293 295 295 295 293 290 290 289 289 288 288 288 288 289 289 289 289 289 289 288 288 288 288 288 288 288 288 288 288 289 289 288 288 287 287 286 285 284 284 284 283 283 281 280
276 274 275 277 279 280 278 276 275 275 275 276 278 279 279 276 271 269 270 272 273 271 269 269 271 274 279 283 286 288 287 282 277 273 270 268 269 274 283 290 293 295 297 299 299 298 294 291 289 289 289 289 290 291 291 292 292 291 291 290 290 290 289 289 289 288 288 288 289 289 289 288 288 288 288 287 287 286 285 285 285 285 284 282 280 278
282 282 283 286 287 286 282 278 277 277 279 280 281 280 275 268 263 261 264 265 265 264 265 267 269 272 276 283 288 288 285 281 277 273 270 270 273 280 287 292 294 296 299 301 302 301 298 296 294 291 292 293 293 293 293 294 293 293 292 292 291 290 290 290 290 290 290 289 289 289 289 289 288 288 288 287 287 286 286 285 285 285 284 282 280 278
288 287 286 287 286 283 279 277 277 280 282 283 282 278 271 263 258 257 258 258 257 258 261 265 267 270 273 278 283 285 282 282 284 289 288 283 280 283 289 291 292 293 295 297 299 302 302 301 299 298 297 297 296 295 294 293 293 293 293 293 292 290 290 291 291 291 291 290 290 289 289 289 288 288 287 287 286 286 286 285 285 284 283 281 279 277
289 288 287 287 285 283 280 279 279 280 281 281 278 273 266 259 256 255 255 254 254 255 259 262 265 267 267 267 266 267 271 276 282 290 294 288 284 284 286 287 289 291 292 290 287 286 293 298 299 300 300 298 296 295 294 293 292 292 292 292 291 291 291 293 293 293 293 292 292 291 290 289 288 288 287 286 286 285 284 284 284 283 281 279 278 276
288 288 287 287 286 284 281 279 278 278 278 277 274 270 265 260 257 255 254 254 254 255 258 261 265 267 267 266 265 266 269 272 277 282 285 283 282 282 285 286 288 290 292 289 285 281 280 284 292 297 298 297 296 294 294 293 292 292 291 291 291 291 293 294 295 294 293 293 293 292 291 290 289 288 287 286 285 284 283 284 283 281 279 278 276 275
288 287 287 286 285 282 280 277 276 275 275 274 272 270 268 265 262 258 256 255 255 255 256 259 262 266 268 269 269 269 270 271 274 278 280 279 280 281 285 286 288 289 291 290 288 285 282 283 288 293 296 297 296 295 294 293 293 292 291 291 291 291 293 295 295 294 294 294 293 292 291 290 289 288 287 286 285 284 284 284 283 281 279 276 275 275
289 288 287 285 283 281 280 279 278 277 276 275 274 273 271 269 266 264 261 259 258 258 258 258 260 262 265 268 270 271 272 273 275 277 279 280 281 283 285 284 285 287 289 288 288 288 286 286 288 291 294 296 296 295 294 294 294 294 293 292 291 291 292 293 294 294 293 293 292 291 290 290 289 289 287 286 285 285 285 285 284 282 280 278 276 274
289 288 287 285 283 282 282 283 282 282 280 279 278 276 275 273 271 269 267 265 264 263 262 261 261 260 260 262 265 267 270 273 276 278 278 278 279 280 281 281 282 284 285 286 285 285 286 287 289 290 291 293 294 296 296 297 297 296 295 293 292 292 292 292 292 292 292 291 290 289 289 289 288 288 287 286 285 285 285 286 285 284 281 279 276 274
286 286 285 285 284 285 286 287 286 285 284 283 282 281 280 278 276 275 273 271 269 268 267 266 264 262 261 260 261 263 267 271 274 275 274 274 274 275 276 277 279 280 280 281 282 283 284 286 288 290 290 289 290 293 296 299 299 298 296 295 294 294 293 292 291 290 289 288 287 287 288 288 288 287 287 286 286 286 285 285 284 284 282 280 277 275
283 284 286 287 288 288 289 289 288 288 287 287 286 286 285 283 281 279 278 276 274 273 272 271 268 266 265 263 263 264 268 270 272 273 273 272 271 271 272 273 275 275 273 273 275 278 281 283 286 288 289 288 288 289 292 296 297 296 296 296 295 294 293 292 291 289 288 287 287 287 287 287 287 287 286 286 286 285 285 284 284 283 282 281 279 277
281 284 287 288 289 289 289 289 290 291 291 290 290 289 288 286 285 282 280 278 276 274 273 271 270 270 270 269 269 269 270 272 273 275 275 273 271 269 268 269 271 272 272 271 271 272 273 275 277 280 284 287 288 290 291 291 292 293 295 296 296 295 293 292 291 290 289 289 288 288 288 287 287 286 285 285 284 283 282 282 282 282 281 281 281 279
283 285 286 287 288 289 289 290 292 293 293 293 292 291 290 289 288 286 283 281 279 277 275 274 273 272 272 272 271 271 272 273 275 276 276 274 272 268 266 265 267 270 272 271 270 269 269 270 272 274 277 280 284 287 288 288 288 290 293 295 295 294 294 293 293 291 290 288 287 286 286 286 286 285 284 283 281 280 279 279 280 280 279 279 279 279
284 285 287 288 290 291 291 292 293 294 294 294 293 292 291 290 290 290 289 287 284 283 282 280 279 277 277 275 273 271 271 273 274 274 274 274 273 270 266 264 265 268 270 271 270 268 267 268 270 272 274 276 279 282 283 284 285 287 288 288 288 289 292 292 291 290 289 287 285 284 284 285 286 286 285 284 282 279 277 276 276 276 277 277 275 275
283 285 287 291 293 295 295 295 296 295 294 293 291 289 289 291 291 292 292 291 289 287 286 286 285 284 283 281 278 276 273 272 272 272 273 273 273 271 267 265 265 266 267 269 269 268 268 268 268 271 273 275 277 280 282 283 284 284 284 283 285 288 291 291 290 288 287 286 286 286 286 286 286 286 285 284 282 280 277 275 273 273 273 273 272 270
284 287 289 292 294 295 296 296 295 294 293 292 289 288 289 290 291 291 291 290 290 289 289 288 288 287 286 285 285 283 280 276 273 272 271 271 271 270 268 266 265 265 265 266 268 269 270 269 268 268 271 273 274 276 280 282 284 284 283 282 283 286 288 289 290 289 288 287 286 286 285 284 284 284 284 282 281 280 278 276 275 273 270 269 268 267
287 289 292 293 295 296 296 295 294 293 293 292 291 290 290 290 290 290 289 289 289 289 290 290 290 289 287 286 287 288 287 284 280 276 272 271 271 271 270 268 266 265 263 262 264 268 271 273 272 271 272 273 273 275 278 280 282 283 282 282 281 280 280 283 287 288 288 286 285 283 282 282 282 282 282 282 281 280 279 277 275 273 270 268 266 265
289 291 293 294 295 295 295 294 294 294 293 292 291 291 291 290 290 290 287 287 288 289 289 290 291 290 288 287 289 291 292 291 288 284 280 278 276 275 272 269 267 265 264 262 261 264 267 271 274 276 277 275 274 274 276 278 279 281 281 281 280 278 277 279 282 283 284 284 283 283 282 282 282 283 282 282 281 280 279 277 275 274 272 269 267 265
290 292 293 294 294 294 293 294 294 294 293 292 291 291 290 290 290 289 288 287 287 288 288 289 288 286 287 289 291 293 294 294 293 291 288 286 283 280 276 273 270 268 266 265 264 264 264 266 271 275 279 278 276 275 274 274 276 278 279 280 280 280 280 281 280 280 281 281 282 282 283 282 281 280 280 280 282 282 279 277 274 272 271 270 267 265
290 292 293 293 293 293 293 294 294 294 292 291 291 291 290 290 290 289 288 286 285 286 288 288 285 282 283 286 288 291 292 293 294 295 294 293 291 289 286 282 278 274 272 270 269 268 267 267 268 270 272 275 277 277 276 275 274 274 277 279 280 280 280 280 281 281 280 279 280 281 281 281 280 280 279 281 282 282 281 279 276 273 271 269 267 265
290 291 291 292 292 292 293 293 293 293 291 291 291 291 290 289 288 287 286 286 286 285 286 286 284 282 282 283 284 285 287 290 292 294 295 296 295 294 292 290 287 284 280 278 275 273 271 270 269 267 266 266 270 273 275 275 274 274 275 277 278 279 279 281 282 282 281 280 279 279 280 280 279 279 281 283 284 284 284 282 280 276 273 270 268 266
285 287 288 290 290 290 291 292 292 291 290 290 291 292 291 289 287 285 284 284 284 283 282 282 282 283 283 283 284 285 287 289 290 292 294 296 297 297 296 295 294 292 290 287 284 280 278 275 271 267 262 260 261 265 271 273 274 274 275 276 277 277 279 281 284 285 285 284 284 284 283 282 279 278 279 281 283 284 285 285 283 280 277 273 270 268
282 282 284 286 287 288 289 291 291 290 289 291 292 292 292 291 288 285 283 282 281 279 278 279 280 282 283 284 285 287 288 290 291 292 293 294 296 297 297 298 298 298 297 295 293 291 288 286 282 276 268 260 257 259 264 269 274 277 278 278 278 279 281 284 287 288 289 289 290 289 288 286 283 281 279 279 281 284 286 286 285 283 281 278 274 271
283 283 283 284 285 286 287 289 290 289 289 290 290 291 290 291 289 287 285 283 281 279 278 278 278 279 281 283 285 286 287 288 288 290 291 293 295 295 296 296 297 298 298 298 298 298 297 295 293 290 285 275 265 260 261 267 274 279 282 282 283 284 285 287 289 291 292 292 292 291 290 288 286 283 280 279 281 284 287 287 287 286 285 283 280 276
Height
814 814 813 813 813 814 814 815 815 816 815 816 816 816 815 815 814 813 812 812 811 809 808 807 806 804 804 803 802 802 801 801 800 800 799 799 799 799 799 798 798 797 796 796 795 794 793 793 792 791 791 790 790 789 789 789 789 788 788 787 787 787 786 786 786 785 785 784 784 784 784 783 783 782 782 781 781 780 780 780 779 779 779 778 778 778
814 813 813 812 812 813 813 814 814 815 814 814 814 814 814 814 813 812 811 810 809 808 807 805 804 803 802 802 801 801 800 800 799 799 798 798 798 797 797 796 796 795 794 794 793 792 791 791 790 789 789 789 788 788 787 787 787 786 786 785 785 785 784 784 784 784 783 783 782 782 781 781 781 780 780 779 779 779 778 778 777 777 776 776 776 775
814 813 812 812 812 812 812 813 813 814 814 814 813 813 813 812 811 810 809 809 807 806 805 804 803 802 801 801 800 800 799 799 798 797 797 796 796 796 795 795 794 793 793 792 791 790 790 789 789 788 787 787 786 786 785 785 785 784 784 784 783 783 783 782 782 782 781 781 780 780 779 779 779 778 778 777 777 776 776 775 775 774 774 774 774 773
813 812 811 811 811 811 811 812 812 812 813 812 812 812 811 811 810 809 808 807 806 805 804 803 802 801 801 800 799 799 798 797 797 796 796 795 795 794 794 793 792 791 791 790 789 789 788 787 787 786 786 785 784 784 784 783 783 783 782 782 781 781 781 780 780 779 779 779 778 778 777 777 776 776 775 775 774 774 774 773 773 772 772 771 771 771
812 811 811 810 810 810 811 811 811 811 811 811 811 810 810 809 809 807 806 805 804 804 803 802 801 801 800 799 798 797 796 796 795 795 794 794 793 793 792 791 790 790 789 788 788 787 786 786 785 784 784 783 783 782 782 781 781 781 780 780 779 779 779 778 778 777 777 777 776 776 775 775 774 774 773 773 772 772 771 771 770 770 769 769 769 769
811 811 810 810 810 810 810 810 810 810 810 810 809 809 809 808 807 806 805 804 803 803 802 801 800 800 799 798 797 796 795 795 794 794 793 792 792 791 790 790 789 788 788 787 786 785 784 784 783 783 782 781 781 780 780 779 779 779 778 778 778 777 777 776 776 775 775 774 774 774 773 773 772 771 771 770 770 769 769 769 768 768 767 767 767 766
811 810 810 809 809 809 809 809 809 809 809 809 808 808 807 807 806 805 804 804 803 802 801 800 799 799 798 797 796 795 794 794 793 793 792 791 790 790 789 789 788 787 786 785 784 784 783 782 781 781 780 779 779 778 778 777 777 777 776 776 775 775 774 774 774 773 773 772 772 771 771 770 770 769 769 768 768 767 767 766 766 765 765 765 764 764
810 809 809 809 809 809 808 808 808 808 808 808 807 807 806 805 804 804 803 803 802 802 801 799 799 798 797 796 795 795 794 793 793 792 791 790 789 789 788 787 786 785 784 784 783 782 781 780 779 779 778 777 777 776 776 775 775 774 774 774 773 773 772 772 771 771 770 770 769 769 769 768 767 767 766 766 765 765 764 764 764 763 763 763 762 762
809 809 809 808 808 808 807 807 807 807 807 807 806 806 805 804 804 803 802 802 801 801 800 799 798 797 796 795 795 794 793 793 792 791 790 789 788 787 786 785 784 784 783 782 781 780 779 778 777 777 776 775 775 774 774 773 773 772 772 771 771 770 770 769 769 769 768 768 767 767 766 766 765 764 764 764 763 763 762 762 761 761 761 760 760 759
809 808 808 807 807 807 806 806 806 806 806 806 805 805 804 804 803 802 802 801 800 800 799 799 798 796 795 794 794 793 792 791 790 790 789 788 787 786 785 784 783 782 781 780 779 778 777 776 775 774 774 773 773 772 772 771 771 770 770 769 769 768 768 767 767 766 766 765 765 764 764 763 763 762 762 761 761 760 760 759 759 759 758 758 758 757
807 807 806 806 805 805 805 805 805 805 805 805 804 804 804 803 803 802 801 800 799 799 799 798 797 796 795 794 793 792 791 790 789 788 788 787 786 784 784 783 781 780 779 778 777 776 775 774 774 773 772 771 771 770 770 769 769 768 768 767 767 766 766 765 764 764 764 763 763 762 762 761 760 760 759 759 759 758 758 757 757 756 756 756 755 755
806 806 805 805 805 804 804 804 804 804 804 804 803 803 802 802 802 802 801 800 799 799 798 798 797 796 795 794 792 791 790 789 788 787 786 785 784 784 782 781 780 779 778 777 776 774 774 773 772 771 770 769 769 768 768 767 767 766 766 765 764 764 764 763 763 762 761 761 760 760 759 759 759 758 757 757 756 756 755 755 754 754 754 754 753 753
805 805 804 804 804 804 804 804 803 803 803 803 802 802 801 801 801 801 800 800 799 799 798 797 796 795 794 793 792 790 789 788 787 786 785 784 784 783 781 780 779 778 777 775 774 773 772 771 770 769 769 768 767 766 766 765 765 764 764 763 763 762 762 761 760 760 759 759 758 758 757 757 756 756 755 754 754 754 753 753 752 752 751 751 751 750
804 804 804 803 803 803 803 803 802 802 802 802 802 802 801 801 801 800 800 799 799 799 798 797 795 794 793 792 791 790 789 787 786 785 784 783 783 782 780 779 778 777 775 774 773 772 771 770 769 768 767 766 765 765 764 764 763 763 762 761 761 760 759 759 759 758 757 757 756 755 755 754 754 753 753 752 752 751 751 750 750 749 749 749 749 748
803 803 803 802 802 802 802 802 802 802 802 802 801 801 801 800 800 800 799 799 799 798 797 796 794 793 792 791 790 789 788 786 785 784 783 782 782 781 780 778 777 776 774 773 772 770 769 769 768 766 765 764 764 763 763 762 761 761 760 759 759 758 758 757 756 756 755 754 754 753 753 752 752 751 750 750 749 749 749 748 748 747 747 746 746 745
802 802 802 801 801 801 801 802 802 802 801 801 801 800 800 800 799 799 799 799 798 798 797 795 794 792 790 789 789 788 787 786 784 784 782 781 780 780 779 778 776 774 773 772 770 769 768 767 766 765 764 763 762 761 761 760 759 759 758 757 757 756 755 754 754 754 753 752 752 751 750 750 749 749 748 748 747 747 746 745 745 744 744 744 743 743
801 801 801 801 801 801 801 801 801 801 801 800 800 800 799 799 799 799 799 799 798 797 796 794 793 791 789 788 787 787 786 785 784 783 782 780 779 779 778 777 775 773 772 770 769 768 767 766 764 763 762 761 760 759 759 758 757 756 756 755 754 754 753 752 752 751 750 750 749 749 748 748 747 746 746 745 744 744 744 743 743 742 741 741 740 740
801 801 801 801 801 801 801 801 800 800 800 799 799 799 799 799 799 799 799 798 797 796 794 793 792 790 789 787 786 786 785 784 783 782 781 779 778 777 777 776 774 772 771 769 768 767 766 764 763 762 760 759 758 758 757 756 755 754 754 753 752 751 751 750 749 749 748 748 747 746 746 745 744 744 743 743 742 741 741 740 740 739 739 738 738 737
800 800 800 800 800 800 800 800 799 799 799 799 799 799 799 799 799 798 797 796 795 794 793 792 791 789 788 786 785 785 785 784 783 782 780 779 777 776 775 774 773 771 769 768 767 765 764 763 761 760 759 758 757 755 755 754 753 752 751 751 750 749 749 748 747 747 746 745 744 744 743 743 742 741 741 740 739 739 738 738 737 737 736 735 735 734
799 800 800 800 799 799 799 799 799 799 799 799 799 799 798 798 797 796 795 794 794 793 792 791 789 788 787 785 784 784 784 784 782 781 779 778 776 775 774 773 772 770 768 766 765 764 763 761 760 758 757 756 755 754 753 752 751 750 749 749 748 747 746 746 745 744 744 743 742 741 741 740 739 739 738 737 737 736 736 735 734 734 733 733 732 732
799 799 799 799 799 799 798 798 798 798 798 798 798 798 797 796 795 794 794 793 792 791 790 789 788 787 786 785 784 783 783 783 782 780 779 777 775 773 773 772 771 769 767 765 764 763 762 760 759 757 756 754 753 752 751 750 749 748 747 747 746 745 744 744 743 742 741 740 740 739 738 737 737 736 735 735 734 734 733 732 732 731 730 730 729 729
798 798 798 798 798 798 798 797 797 797 797 797 797 797 796 795 794 793 792 792 791 790 789 788 787 786 785 784 783 782 782 782 781 780 778 776 774 772 771 770 769 768 766 764 763 762 760 759 757 756 754 753 752 750 749 748 747 746 745 744 744 743 742 741 740 740 739 738 737 736 736 735 734 734 733 732 731 731 730 729 729 728 728 727 726 726
797 797 797 797 797 797 797 796 796 796 796 796 796 795 794 793 792 792 791 790 790 789 788 787 786 785 784 783 782 781 780 780 779 779 778 775 772 770 770 769 768 767 764 763 762 760 759 758 756 754 753 751 750 749 748 746 745 744 744 743 742 741 740 739 738 737 737 736 735 734 733 732 732 731 730 729 729 728 727 727 726 725 724 724 723 723
797 796 796 796 796 796 796 795 795 795 795 795 794 793 792 792 791 791 790 789 789 788 787 786 785 784 782 781 780 779 779 778 778 778 776 774 771 769 769 768 767 765 763 762 761 759 758 756 754 753 751 749 748 747 746 744 744 743 742 741 740 739 738 737 736 735 734 733 732 732 731 730 729 728 727 727 726 725 724 724 723 722 722 721 720 719
796 795 795 795 795 795 795 794 794 794 794 793 793 792 791 791 790 790 789 789 788 787 786 785 783 782 780 779 779 778 777 777 777 776 775 773 770 768 767 767 766 764 762 760 759 758 757 754 753 751 749 748 746 745 744 743 742 740 739 739 738 736 735 734 734 733 732 731 730 729 728 727 726 726 725 724 723 722 722 721 720 719 719 718 717 717
794 794 794 794 794 794 793 793 793 793 792 792 792 791 790 790 789 789 788 787 786 786 785 784 782 780 779 778 777 776 775 775 775 774 774 772 769 767 766 766 765 764 761 759 758 757 755 753 751 749 748 746 744 743 742 740 739 739 738 736 735 734 734 733 732 730 729 728 727 726 725 724 724 723 722 721 720 720 719 718 718 717 716 715 714 714
792 792 792 792 792 792 792 791 791 791 791 790 790 790 790 789 789 788 786 785 785 784 784 782 781 779 778 777 776 775 774 774 774 773 772 771 769 767 765 765 764 763 760 758 757 756 754 752 749 748 746 744 742 741 739 739 738 737 736 734 733 732 731 730 729 728 727 726 725 724 723 722 721 720 719 719 718 717 716 716 715 714 714 713 712 710
791 790 790 790 790 790 790 789 789 789 789 789 789 789 789 788 787 786 785 784 784 784 783 781 780 779 777 776 774 774 773 773 772 771 771 770 768 766 764 764 763 762 760 757 755 754 753 751 748 746 744 742 741 739 738 737 736 735 734 732 731 730 729 728 727 725 724 723 722 721 720 719 719 718 717 716 715 715 714 713 713 712 711 710 709 708
789 789 789 789 789 788 788 787 787 787 787 786 786 786 786 786 786 784 783 783 783 782 781 780 779 778 776 775 774 773 772 771 770 770 770 769 767 765 764 763 762 761 759 757 754 752 750 749 747 745 743 741 740 739 737 736 734 733 732 730 729 728 726 725 724 723 722 721 720 719 718 717 716 715 714 714 713 712 711 711 710 709 709 708 706 705
789 788 788 787 787 786 786 786 785 785 784 784 784 784 784 784 783 782 782 781 781 780 779 779 778 777 776 775 773 772 770 769 769 769 769 768 766 764 763 762 761 760 759 757 754 750 747 745 744 744 742 740 739 737 736 734 733 731 730 728 726 725 724 723 722 721 720 719 718 716 715 714 714 713 712 711 710 710 709 709 708 707 706 705 704 703
788 787 787 786 786 785 785 784 784 783 783 782 782 782 782 781 781 781 780 780 780 779 778 778 777 776 775 775 773 771 769 768 768 768 768 767 765 764 763 762 760 759 759 758 755 751 746 742 741 741 741 739 738 736 735 733 732 730 728 726 724 723 722 721 720 719 718 716 715 714 713 712 711 710 709 709 708 707 707 706 706 705 704 703 701 700
787 786 785 785 784 784 784 783 782 782 781 781 780 780 780 779 779 779 779 779 778 778 777 776 776 775 774 774 773 770 768 767 767 767 767 767 765 763 762 761 759 758 758 757 756 754 749 743 740 739 739 738 737 735 733 732 730 729 727 725 723 721 720 719 718 717 715 714 713 712 711 710 709 708 707 706 705 705 704 704 703 703 702 701 699 698
785 785 784 784 783 783 782 782 781 781 780 780 779 779 779 778 778 778 777 777 777 776 776 775 774 774 773 772 771 769 767 766 766 766 766 766 764 762 761 760 759 757 756 755 754 753 750 746 742 739 737 736 735 733 732 730 729 727 726 724 722 719 718 717 716 715 714 712 711 709 708 707 706 705 704 704 703 702 701 701 701 700 700 699 697 696
784 784 783 782 782 781 781 780 780 779 779 779 778 778 778 777 777 776 776 776 775 775 774 774 774 773 772 771 769 767 766 765 765 765 765 765 763 761 760 759 758 756 755 754 752 751 749 746 743 740 737 734 733 732 730 729 727 725 724 723 720 719 717 716 714 713 712 710 709 708 706 705 704 703 702 701 700 700 699 699 698 698 698 697 695 694
783 782 782 781 781 780 780 779 779 779 778 778 777 777 776 776 775 775 775 774 774 774 773 773 772 771 771 769 768 766 764 764 764 764 764 764 762 761 759 758 756 755 754 752 751 749 747 744 742 740 737 734 731 729 728 727 725 724 722 721 719 718 716 714 713 712 710 709 707 706 704 703 702 701 700 699 698 697 697 696 696 695 695 694 693 692
782 781 781 780 780 779 779 778 778 778 777 777 776 776 775 775 774 774 773 773 772 772 771 771 770 770 769 768 767 765 763 762 762 763 763 762 761 760 758 756 755 754 753 751 749 748 746 743 741 739 737 734 730 727 725 725 724 723 721 719 718 716 714 713 712 710 709 707 705 704 703 702 700 699 698 697 696 695 694 694 693 692 692 691 691 690
781 780 780 779 779 778 778 777 777 777 776 776 775 775 774 774 773 773 772 771 771 770 769 769 768 768 767 766 765 763 762 761 760 760 760 760 760 759 757 755 754 753 752 750 748 746 745 742 740 737 736 734 730 727 724 723 722 721 719 717 716 714 713 711 710 709 707 705 704 702 701 700 699 697 696 695 694 693 692 691 690 690 689 688 687 687
780 779 779 779 778 778 777 777 776 776 775 775 774 774 773 773 772 771 771 770 769 769 768 767 766 765 764 764 763 761 760 759 759 758 758 758 758 757 755 754 752 751 750 749 747 745 744 742 739 736 734 731 729 727 725 723 721 719 717 715 714 713 711 709 708 707 706 704 702 700 699 698 697 695 694 693 692 691 690 689 688 687 686 685 684 684
779 779 778 778 777 777 776 776 775 775 774 774 773 773 772 771 770 770 769 768 768 767 766 765 764 764 762 761 760 759 758 757 756 755 755 755 755 754 754 752 750 749 748 747 745 744 743 741 739 736 733 730 728 725 724 722 720 718 716 714 712 710 709 708 707 705 704 702 700 699 697 696 695 694 692 691 690 689 688 687 685 685 684 683 682 680
779 778 778 777 777 776 776 775 774 774 773 773 772 771 771 770 769 769 768 767 766 765 765 764 763 762 761 759 759 757 756 755 754 753 753 752 752 752 751 750 748 746 745 744 743 742 741 739 737 735 733 730 728 725 723 721 719 717 716 714 710 708 706 705 704 703 702 700 699 697 695 694 693 692 690 689 688 687 686 684 683 682 682 681 680 678
778 777 777 776 776 775 775 774 774 773 772 772 771 770 770 769 768 768 767 766 765 764 764 763 762 760 759 758 757 756 754 753 752 751 750 749 749 749 749 747 746 744 744 742 741 739 739 737 735 733 731 729 727 724 721 719 717 716 715 713 710 706 704 703 702 701 699 698 697 695 694 692 691 689 688 687 686 684 684 682 681 680 679 679 678 676
777 777 776 775 775 774 774 773 773 772 772 771 770 769 769 768 768 767 766 765 764 763 762 761 760 759 757 756 755 754 753 751 750 749 748 747 747 746 746 745 744 743 741 740 739 737 736 734 733 731 729 727 725 723 719 717 715 714 714 711 709 705 703 701 700 699 698 696 694 693 692 690 689 687 686 684 683 682 681 680 679 678 677 675 674 674
776 776 775 775 774 774 773 772 772 771 771 770 769 769 768 767 767 766 765 764 763 762 761 760 759 758 756 754 753 752 750 749 749 748 747 746 745 744 744 742 742 741 739 738 736 734 733 732 731 729 727 726 724 721 718 715 713 712 711 709 708 705 702 698 697 696 696 694 693 691 690 689 687 685 684 682 680 679 678 677 676 675 674 673 671 670
776 775 774 774 773 773 772 772 771 770 770 769 768 768 767 766 766 765 764 763 762 761 760 759 758 757 755 753 751 750 749 748 747 746 745 744 744 743 741 740 739 738 737 736 734 732 730 729 728 726 725 724 722 719 717 714 711 709 708 707 706 704 701 697 695 694 693 691 690 689 688 686 684 683 681 679 678 677 675 674 673 672 670 669 669 667
775 774 774 773 773 772 771 771 770 769 769 768 767 767 766 765 765 764 763 762 761 760 759 758 757 755 754 751 750 748 747 746 745 744 743 742 741 741 740 739 737 736 735 734 732 731 729 727 725 724 723 721 720 717 715 712 710 707 705 704 703 701 699 696 694 693 691 689 687 686 685 684 682 681 679 677 675 674 673 671 670 669 667 666 665 664
774 774 773 772 772 771 771 770 769 769 768 767 766 765 765 764 764 763 762 761 760 759 758 757 756 754 752 750 749 747 746 744 743 742 741 740 739 739 738 737 735 734 733 731 730 729 727 725 723 722 720 719 717 714 712 710 708 705 703 701 699 698 695 693 692 690 689 687 685 683 682 681 680 679 676 674 672 671 669 668 667 665 664 663 662 661
774 773 773 772 771 770 770 769 769 768 767 766 765 764 764 763 762 762 761 760 759 758 757 756 755 753 751 749 748 746 745 743 741 740 739 738 738 737 736 734 734 732 731 729 728 726 724 723 721 720 719 717 714 711 709 707 706 704 701 699 697 695 693 690 689 687 686 684 682 681 679 679 678 676 674 672 669 668 666 665 664 663 661 660 659 658
773 773 772 771 770 770 769 768 768 767 766 765 764 764 763 762 761 760 759 759 758 757 755 754 753 752 750 748 747 745 744 742 740 738 737 736 735 734 734 732 731 730 729 727 726 724 722 720 719 718 717 715 712 709 705 704 702 701 699 697 695 693 690 688 686 684 684 682 680 678 678 677 675 674 671 669 667 664 663 661 660 659 658 657 656 654
772 772 771 770 770 769 768 767 767 766 765 764 763 762 761 761 760 759 758 757 756 755 754 753 752 750 748 747 745 744 742 741 739 737 736 734 734 733 731 730 729 728 726 724 723 721 719 717 716 714 713 712 710 707 703 701 699 698 696 694 693 690 688 685 683 682 681 679 677 676 675 674 673 671 669 667 664 661 659 658 657 656 655 654 653 652
771 771 770 769 769 768 767 766 766 765 764 763 762 761 760 759 759 758 757 756 755 754 753 752 750 749 747 745 744 742 741 739 738 736 734 733 732 731 730 729 727 726 724 722 720 718 716 714 712 710 709 709 707 705 702 699 696 695 694 692 690 688 686 683 681 680 679 677 675 674 673 672 671 669 668 665 662 659 656 655 654 653 652 651 650 649
770 770 769 769 768 767 766 765 765 764 763 762 761 760 759 758 757 756 755 754 754 753 751 750 749 748 746 744 742 741 739 738 736 734 733 732 731 730 728 727 726 724 723 720 718 716 714 711 709 706 705 704 704 703 700 698 695 693 691 689 688 686 684 682 679 678 677 675 674 672 671 669 668 667 666 664 661 658 654 652 650 649 649 649 648 646